Location: Ballingbuur
(53.0000°N, 5.7667°E)
Time: 20:35:01
(UTC+00:00)

CZ-2C R/B - Pass Details

Date: 29 November 2020
Orbit: 785 x 870 km, 98.2° (Epoch: 24 January)

Event Time Altitude Azimuth Distance (km) Brightness Sun altitude
Rises 06:29:31 0° 179° (S) 3,405 6.2 -8.0°
Reaches altitude 10° 06:31:58 10° 185° (S) 2,462 5.4 -7.6°
Maximum altitude 06:37:17 51° 261° (W) 1,041 2.9 -6.9°
Drops below altitude 10° 06:42:31 10° 337° (NNW) 2,424 4.6 -6.2°
Sets 06:44:56 0° 343° (NNW) 3,348 5.4 -5.9°
